When you browse on this site, cookies collect data to enhance your experience and personalize the content and advertising you see.
Visit our Privacy Policy to learn more. By continuing to use the site, you agree to this use of cookies and data.
  • In Spain
  • List of Countries
  • For 7 days
  • Water Temperature
  • Weather Map
  • Weather Widgets
  • user-avatar
    Login

    Hourly Weather Oksford

    Today, 12 December, Thursday

    Time Temperature Precipitation Wind Pressure Humidity
    00:00 +1°C° 0 mm 3 mps 746 mmHg 90%
    01:00 +1°C° 0 mm 3 mps 746 mmHg 90%
    02:00 +1°C° 0 mm 3 mps 745 mmHg 90%
    03:00 +1°C° 0 mm 3 mps 745 mmHg 90%
    04:00 0°C° 0 mm 4 mps 744 mmHg 89%
    05:00 0°C° 0 mm 4 mps 743 mmHg 89%
    06:00 0°C° 0 mm 4 mps 742 mmHg 88%
    07:00 +1°C° 0.2 mm 5 mps 741 mmHg 89%
    08:00 +2°C° 0.2 mm 6 mps 739 mmHg 90%
    09:00 +3°C° 0.2 mm 7 mps 738 mmHg 91%
    10:00 +4°C° 1.1 mm 7 mps 736 mmHg 92%
    11:00 +4°C° 1.1 mm 6 mps 735 mmHg 93%
    12:00 +5°C° 1.1 mm 6 mps 734 mmHg 94%
    13:00 +6°C° 2.2 mm 5 mps 732 mmHg 95%
    14:00 +7°C° 2.2 mm 5 mps 731 mmHg 96%
    15:00 +7°C° 2.2 mm 4 mps 729 mmHg 97%
    16:00 +6°C° 0.8 mm 4 mps 729 mmHg 95%
    17:00 +6°C° 0.8 mm 4 mps 728 mmHg 94%
    18:00 +6°C° 0.8 mm 4 mps 727 mmHg 93%
    19:00 +6°C° 0.1 mm 4 mps 727 mmHg 93%
    20:00 +5°C° 0.1 mm 4 mps 726 mmHg 94%
    21:00 +5°C° 0.1 mm 3 mps 726 mmHg 94%
    22:00 +5°C° 1.4 mm 5 mps 726 mmHg 92%
    23:00 +3°C° 1.4 mm 6 mps 725 mmHg 90%

    Tomorrow, 13 December, Friday

    Time Temperature Precipitation Wind Pressure Humidity
    00:00 +2°C° 1.4 mm 8 mps 725 mmHg 88%
    01:00 +2°C° 0 mm 8 mps 725 mmHg 87%
    02:00 +2°C° 0 mm 8 mps 725 mmHg 87%
    03:00 +2°C° 0 mm 8 mps 725 mmHg 87%
    04:00 +2°C° 0.9 mm 8 mps 726 mmHg 87%
    05:00 +2°C° 0.9 mm 9 mps 727 mmHg 87%
    06:00 +3°C° 0.9 mm 10 mps 727 mmHg 87%
    07:00 +2°C° 0.1 mm 10 mps 728 mmHg 85%
    08:00 +2°C° 0.1 mm 9 mps 729 mmHg 83%
    09:00 +2°C° 0.1 mm 9 mps 730 mmHg 81%
    10:00 +2°C° 0 mm 10 mps 731 mmHg 80%
    11:00 +2°C° 0 mm 10 mps 731 mmHg 79%
    12:00 +3°C° 0 mm 10 mps 732 mmHg 78%
    13:00 +3°C° 0 mm 10 mps 732 mmHg 80%
    14:00 +3°C° 0 mm 9 mps 733 mmHg 81%
    15:00 +3°C° 0 mm 9 mps 733 mmHg 82%
    16:00 +2°C° 0 mm 8 mps 734 mmHg 83%
    17:00 +3°C° 0 mm 7 mps 735 mmHg 83%
    18:00 +2°C° 0 mm 6 mps 735 mmHg 83%
    19:00 +2°C° 0 mm 6 mps 735 mmHg 83%
    20:00 +2°C° 0 mm 5 mps 734 mmHg 84%
    21:00 +3°C° 0 mm 4 mps 734 mmHg 85%
    22:00 +3°C° 0.4 mm 5 mps 733 mmHg 88%
    23:00 +5°C° 0.4 mm 5 mps 732 mmHg 91%

    Day after tomorrow, 14 December, Saturday

    Time Temperature Precipitation Wind Pressure Humidity
    00:00 +5°C° 0.4 mm 6 mps 730 mmHg 94%
    01:00 +5°C° 0 mm 8 mps 731 mmHg 87%
    02:00 +4°C° 0 mm 11 mps 731 mmHg 81%
    03:00 +4°C° 0 mm 13 mps 732 mmHg 74%
    04:00 +3°C° 0 mm 12 mps 733 mmHg 75%
    05:00 +2°C° 0 mm 10 mps 734 mmHg 76%
    06:00 +1°C° 0 mm 8 mps 736 mmHg 76%
    07:00 +1°C° 0 mm 8 mps 736 mmHg 77%
    08:00 +2°C° 0 mm 7 mps 736 mmHg 78%
    09:00 +1°C° 0 mm 6 mps 737 mmHg 79%
    10:00 +2°C° 0.5 mm 6 mps 737 mmHg 79%
    11:00 +2°C° 0.5 mm 7 mps 738 mmHg 78%
    12:00 +2°C° 0.5 mm 7 mps 738 mmHg 78%
    13:00 +2°C° 0 mm 6 mps 739 mmHg 76%
    14:00 +2°C° 0 mm 6 mps 739 mmHg 74%
    15:00 +2°C° 0 mm 5 mps 739 mmHg 72%
    16:00 +1°C° 0 mm 5 mps 739 mmHg 76%
    17:00 +1°C° 0 mm 4 mps 739 mmHg 79%
    18:00 0°C° 0 mm 4 mps 739 mmHg 82%
    19:00 0°C° 0.1 mm 5 mps 738 mmHg 83%
    20:00 +1°C° 0.1 mm 6 mps 737 mmHg 83%
    21:00 +2°C° 0.1 mm 7 mps 736 mmHg 83%
    22:00 +1°C° 0.9 mm 8 mps 735 mmHg 80%
    23:00 +2°C° 0.9 mm 9 mps 733 mmHg 78%

    15 December, Sunday

    Time Temperature Precipitation Wind Pressure Humidity
    00:00 +2°C° 0.9 mm 10 mps 732 mmHg 75%
    01:00 +2°C° 0 mm 12 mps 733 mmHg 74%
    02:00 0°C° 0 mm 14 mps 734 mmHg 73%
    03:00 -2°C° 0 mm 16 mps 735 mmHg 72%
    04:00 -1°C° 0 mm 12 mps 736 mmHg 76%
    05:00 -1°C° 0 mm 9 mps 738 mmHg 80%
    06:00 -1°C° 0 mm 5 mps 740 mmHg 84%
    07:00 -1°C° 0 mm 6 mps 740 mmHg 83%
    08:00 -1°C° 0 mm 6 mps 741 mmHg 81%
    09:00 0°C° 0 mm 7 mps 742 mmHg 79%
    10:00 +2°C° 0 mm 7 mps 742 mmHg 77%
    11:00 +2°C° 0 mm 7 mps 742 mmHg 75%
    12:00 +3°C° 0 mm 6 mps 742 mmHg 73%
    13:00 +3°C° 0.8 mm 7 mps 742 mmHg 76%
    14:00 +3°C° 0.8 mm 7 mps 742 mmHg 78%
    15:00 +2°C° 0.8 mm 8 mps 742 mmHg 81%
    16:00 +2°C° 0 mm 7 mps 742 mmHg 81%
    17:00 +2°C° 0 mm 7 mps 743 mmHg 81%
    18:00 +2°C° 0 mm 6 mps 743 mmHg 81%
    19:00 +2°C° 0 mm 6 mps 744 mmHg 81%
    20:00 +2°C° 0 mm 6 mps 744 mmHg 81%
    21:00 +2°C° 0 mm 6 mps 744 mmHg 81%
    22:00 +2°C° 0 mm 6 mps 745 mmHg 83%
    23:00 +1°C° 0 mm 5 mps 745 mmHg 85%

    16 December, Monday

    Time Temperature Precipitation Wind Pressure Humidity
    00:00 +1°C° 0 mm 4 mps 745 mmHg 86%
    01:00 +1°C° 0 mm 4 mps 745 mmHg 87%
    02:00 +1°C° 0 mm 4 mps 745 mmHg 87%
    03:00 +1°C° 0 mm 4 mps 745 mmHg 87%
    04:00 +1°C° 0 mm 4 mps 745 mmHg 88%
    05:00 +3°C° 0 mm 4 mps 745 mmHg 88%
    06:00 +3°C° 0 mm 4 mps 745 mmHg 88%
    07:00 +3°C° 0 mm 4 mps 745 mmHg 88%
    08:00 +3°C° 0 mm 4 mps 745 mmHg 88%
    09:00 +3°C° 0 mm 4 mps 746 mmHg 87%
    10:00 +4°C° 0 mm 4 mps 746 mmHg 85%
    11:00 +5°C° 0 mm 4 mps 746 mmHg 83%
    12:00 +6°C° 0 mm 4 mps 745 mmHg 81%
    13:00 +6°C° 0 mm 4 mps 745 mmHg 83%
    14:00 +5°C° 0 mm 3 mps 745 mmHg 84%
    15:00 +5°C° 0 mm 3 mps 745 mmHg 85%
    16:00 +5°C° 0 mm 3 mps 745 mmHg 87%
    17:00 +4°C° 0 mm 3 mps 745 mmHg 89%
    18:00 +4°C° 0 mm 2 mps 745 mmHg 91%
    19:00 +4°C° 0 mm 2 mps 745 mmHg 91%
    20:00 +4°C° 0 mm 2 mps 745 mmHg 91%
    21:00 +4°C° 0 mm 2 mps 745 mmHg 91%
    22:00 +4°C° 0 mm 2 mps 745 mmHg 91%
    23:00 +4°C° 0 mm 2 mps 745 mmHg 92%

    17 December, Tuesday

    Time Temperature Precipitation Wind Pressure Humidity
    00:00 +4°C° 0 mm 2 mps 745 mmHg 92%
    01:00 +3°C° 0 mm 2 mps 745 mmHg 92%
    02:00 +3°C° 0 mm 2 mps 746 mmHg 93%
    03:00 +4°C° 0 mm 1 mps 746 mmHg 93%
    04:00 +3°C° 0 mm 2 mps 746 mmHg 94%
    05:00 +3°C° 0 mm 2 mps 747 mmHg 94%
    06:00 +3°C° 0 mm 2 mps 747 mmHg 95%
    07:00 +3°C° 0 mm 2 mps 748 mmHg 93%
    08:00 +2°C° 0 mm 2 mps 748 mmHg 92%
    09:00 +2°C° 0 mm 2 mps 749 mmHg 91%
    10:00 +3°C° 0 mm 2 mps 749 mmHg 87%
    11:00 +4°C° 0 mm 2 mps 750 mmHg 84%
    12:00 +3°C° 0 mm 3 mps 750 mmHg 81%
    13:00 +4°C° 0 mm 2 mps 750 mmHg 83%
    14:00 +4°C° 0 mm 2 mps 751 mmHg 85%
    15:00 +4°C° 0 mm 2 mps 751 mmHg 87%
    16:00 +3°C° 0 mm 2 mps 752 mmHg 88%
    17:00 +2°C° 0 mm 2 mps 753 mmHg 89%
    18:00 +2°C° 0 mm 2 mps 753 mmHg 91%
    19:00 +2°C° 0 mm 2 mps 754 mmHg 91%
    20:00 +1°C° 0 mm 2 mps 754 mmHg 91%
    21:00 0°C° 0 mm 3 mps 755 mmHg 90%
    22:00 0°C° 0 mm 3 mps 755 mmHg 90%
    23:00 +1°C° 0 mm 2 mps 756 mmHg 89%
    Show more